Location: Stockholm
(59.3333°N, 18.0500°E)
Time: 01:18:35
(UTC+02:00)

ISS - Pass Details

Date: 14 May 2021
Orbit: 417 x 422 km, 51.6° (Epoch: 16 June)

Event Time Altitude Azimuth Distance (km) Brightness Sun altitude
Exits shadow 02:51:04 - 259° (WSW) 2,200 -0.5 -7.8°
Reaches altitude 10° 02:53:11 10° 241° (WSW) 1,508 -1.5 -7.7°
Maximum altitude 02:55:28 17° 198° (SSW) 1,146 -2.2 -7.5°
Drops below altitude 10° 02:57:46 10° 155° (SSE) 1,507 -1.3 -7.4°
Sets 03:00:21 0° 135° (SE) 2,371 -0.1 -7.2°
